www.pogodaiklimat.ru

Погода и климат >> Архив погоды >> Россия >> Свердловская область >> Екатеринбург


АРХИВ ПОГОДЫ в Екатеринбурге

Время (UTC), дата Ветер
(напр.,м/с)
 
Видим.   Явления Облачность Т
(С)
Тd
(С)
f
(%)
Тe
(С)
Тes
(С)
Комфортность P
(гПа)
Po
(гПа)
Тmin
(С)
Tmax
(С)
R
(мм)
R24
(мм)
S
(см)
12 16.05 ЮВ 4
{11}
50 км 9/8 1000 м
[Sc Ac trans]
+16.9 -2.6 26 +17 +17 тепло 1016.0 983.1
15 16.05 ЮЗ 3
{10}
20 км 9/9 1000 м
[Cb cap]
+16.5 -0.5 31 +16 +16 тепло 1014.1 981.2 +18.0
18 16.05 ЮЗ 3 10 км слаб. ливневой дождь 10/10 1000 м
[Cb cap]
+12.5 +6.5 67 +11 +11 по сезону 1012.4 979.1
21 16.05 ЮЗ 3 10 км {ливн. осадки} 9/9 1000 м
[Cb cap]
+10.5 +7.9 84 +8 +8 по сезону 1009.9 976.5
00 17.05 ЮЗ 2 10 км {ливн. осадки} 10/0
[Ac As Cs]
+10.9 +7.5 80 +10 +10 тепло 1007.0 973.8
03 17.05 З 2 4000 м слаб. ливневой дождь 10/10 600 м
[Cb cap]
+10.0 +8.5 90 +8 +8 по сезону 1004.9 971.7 +10.0 5
06 17.05 СЗ 2 10 км слаб. ливневой дождь 10/10 600 м
[Cb calv]
+10.0 +8.5 90 +8 +8 прохладно 1004.2 970.9 +9.8
09 17.05 СЗ 4-10
{12}
10 км слаб. ливневой дождь 10/10 600 м
[Cb calv]
+8.3 +6.2 87 +5 +5 очень
холодно
1005.9 972.4
12 17.05 СЗ 5
{14}
20 км {ливн. осадки} 10/10 600 м
[Cb calv]
+6.0 +1.5 73 +2 +2 очень
холодно
1008.9 975.0
15 17.05 СЗ 3
{13}
20 км 9/9 600 м
[Sc]
+6.0 -1.9 57 +3 +3 очень
холодно
1010.1 976.1 +10.1 9
18 17.05 СЗ 3
{10}
10 км 10/0
[Ci fib]
+4.5 -3.3 57 +1 +1 очень
холодно
1010.6 976.4
21 17.05 З 2 10 км 10/0
[Ci fib]
+2.6 -2.3 70 -0 -0 очень
холодно
1009.1 974.8
00 18.05 ЮЗ 1 20 км 3/0
[Ac und]
+1.8 -2.3 74 0 0 холодно 1007.6 973.3
03 18.05 З 3 20 км слаб. ливневой дождь 10/10 600 м
[Cb calv]
+4.3 -0.2 73 +1 +1 очень
холодно
1005.5 971.5 +1.7 0.0
06 18.05 З 3 20 км {ливн. осадки} 8/8 600 м
[Cb calv]
+8.1 +0.8 60 +6 +8 холодно 1003.2 969.7
09 18.05 З 5 50 км в посл. час крупа {ливн. осадки} 9/8 600 м
[Cb calv Ci fib]
+11.9 -2.4 37 +10 +11 прохладно 1001.5 968.5
12 18.05 СЗ 5-10
{10}
20 км слаб. ливневой дождь [макс. диам. градин 3 мм] 9/8 600 м
[Cb cap Cs]
+6.4 +2.0 73 +2 +3 очень
холодно
1002.3 968.7
15 18.05 С 3
{10}
50 км 9/8 600 м
[Cb calv Cs]
+7.9 -1.1 53 +6 +6 холодно 1001.7 968.2 +12.1 1
18 18.05 СЗ 3 10 км 9/9 600 м
[Cb calv]
+5.6 -0.2 66 +3 +3 холодно 1001.7 968.0
21 18.05 З 3 10 км {ливн. осадки} 9/3 600 м
[Sc Cs]
+3.8 -0.2 75 0 0 очень
холодно
1001.0 967.1
00 19.05 З 3 10 км слаб. дождь 10/0 600 м
[As op]
+2.4 +0.1 85 -2 -2 очень
холодно
1001.1 967.0
03 19.05 СЗ 4 50 км в посл. час дождь 9/9 600 м
[Cb calv]
+2.5 -0.3 82 -2 -2 очень
холодно
1001.2 967.1 +1.8 0.8
06 19.05 СЗ 3 50 км в посл. час крупа {ливн. осадки, дождь} 9/9 600 м
[Cb cap]
+6.1 -1.5 58 +3 +4 очень
холодно
1000.7 967.1
09 19.05 З 5
{12}
20 км в посл. час крупа {ливн. осадки} 8/8 600 м
[Cb cap Ci fib]
+6.8 -0.5 60 +3 +5 очень
холодно
1001.5 968.0
12 19.05 З 3
{11}
20 км слаб. ливневой дождь 8/8 600 м
[Cb cap Ci fib]
+4.9 -0.2 70 +2 +3 очень
холодно
1003.4 969.5
15 19.05 З 2 20 км {ливн. осадки} 6/6 600 м
[Cb cap]
+5.8 -0.4 64 +4 +4 очень
холодно
1004.3 970.5 +8.9 5
18 19.05 З 3 10 км {ливн. осадки} ясно +3.1 -0.3 78 -1 -1 очень
холодно
1005.4 971.3
21 19.05 З 2 10 км 3/0
[Ci fib]
+1.3 -0.7 87 -2 -2 очень
холодно
1005.9 971.5
00 20.05 З 2 50 км 3/0
[Ci fib]
+0.5 -1.2 88 -3 -3 очень
холодно
1006.0 971.5
03 20.05 З 4 50 км 10/0
[Cs]
+4.0 -0.2 74 -0 +2 очень
холодно
1005.7 971.7 +0.5
06 20.05 З 5 10 км 10/10 600 м
[Sc]
+5.6 0.0 67 +1 +1 очень
холодно
1006.0 972.1
09 20.05 З 3 10 км слаб. ливневой дождь 10/10 600 м
[Cb calv]
+5.4 +2.0 79 +2 +2 очень
холодно
1006.2 972.3
12 20.05 СЗ 2
{12}
20 км {ливн. осадки} 9/9 600 м
[Cb calv]
+8.0 +0.4 59 +6 +7 очень
холодно
1006.4 972.8
15 20.05 СЗ 5-11
{11}
20 км 10/6 600 м
[Cb calv Ci fib]
+7.5 -1.8 52 +4 +4 очень
холодно
1007.1 973.4 +10.0 0.3
18 20.05 СЗ 2
{11}
10 км 8/3 600 м
[Sc Ci fib]
+4.3 +0.7 77 +2 +2 очень
холодно
1008.6 974.5
21 20.05 З 1 10 км 10/0
[Ac und Cc]
+3.4 +0.4 81 +2 +2 холодно 1008.4 974.2
00 21.05 З 2 10 км 10/0
[Ac und Cc]
+3.4 +0.4 81 +1 +1 холодно 1007.9 973.7
03 21.05 СЗ 3 10 км слаб. ливневой дождь 10/10 600 м
[Cb calv]
+3.4 +0.7 82 -0 -0 очень
холодно
1008.7 974.5 +2.9 0.3
06 21.05 СЗ 3
{10}
10 км слаб. крупа 10/10 600 м
[Cb cap]
+2.0 -0.7 82 -2 -2 очень
холодно
1010.1 975.7 +2.0
09 21.05 СЗ 4 4000 м слаб. крупа 10/10 600 м
[Cb cap]
+3.4 +0.4 81 -1 -1 очень
холодно
1011.3 977.0
12 21.05 СЗ 3
{10}
20 км слаб. ливневой дождь 9/9 600 м
[Cb calv]
+6.1 +0.2 66 +3 +4 очень
холодно
1012.2 978.2
15 21.05 СЗ 3 20 км {ливн. осадки} 9/9 600 м
[Cb calv]
+5.1 -0.9 65 +2 +2 очень
холодно
1013.4 979.2 +6.3 1
18 21.05 СЗ 2 10 км {ливн. осадки} 10/8 600 м
[Sc Cs]
+4.6 -0.8 68 +2 +2 очень
холодно
1013.8 979.5
21 21.05 З 2 10 км 9/9 600 м
[Sc]
+4.1 +0.8 79 +1 +1 холодно 1013.5 979.2
00 22.05 ЮЗ 1 10 км 9/8 600 м
[Sc Cs]
+3.0 +0.6 84 +1 +1 холодно 1013.5 979.1
03 22.05 З 2 10 км 9/6 1000 м
[Sc Cs]
+5.9 +0.9 70 +4 +5 холодно 1013.8 979.7 +2.9 0.0
06 22.05 З 3 20 км 9/8 1000 м
[Sc Cs]
+9.9 +0.2 51 +8 +10 холодно 1013.2 979.6
09 22.05 З 2
{10}
50 км в посл. час ливневой дождь 8/8 1000 м
[Cb cap]
+12.4 -1.8 37 +12 +15 по сезону 1012.4 979.1
12 22.05 З 2 50 км {ливн. осадки} 9/9 1000 м
[Cb cap]
+12.4 -5.0 29 +12 +13 прохладно 1011.9 978.6
15 22.05 ЮЗ 1 20 км 9/9 1000 м
[Sc]
+12.3 -5.2 29 +13 +13 по сезону 1011.5 978.2 +14.9 0.0
18 22.05 Ю 1 10 км 9/9 1000 м
[Sc]
+9.7 -2.4 43 +10 +10 по сезону 1011.9 978.3
21 22.05 Ю 1 10 км 8/8 1000 м
[Sc]
+7.7 -1.5 52 +7 +7 по сезону 1011.5 977.7
00 23.05 ЮЗ 1 20 км 10/0
[Ac trans Cs]
+5.8 -1.3 60 +5 +5 по сезону 1011.2 977.2
03 23.05 Ю 1 20 км 10/8 1000 м
[Sc Cs]
+11.1 -0.8 44 +11 +12 по сезону 1009.7 976.3 +5.4
06 23.05 ЮЗ 3 20 км 10/4 600 м
[Sc Ac und Cc]
+15.9 -1.5 30 +16 +19 тепло 1007.4 974.7

 

Местоположение метеостанции Екатеринбург (Свердловская область, Россия): широта 56.83 долгота 60.63 высота над уровнем моря 281 м.

В архиве по умолчанию представлена погода в Екатеринбурге за последнюю неделю. Архивные данные за месяц целиком и за предыдущие месяцы, начиная с января 2011 года, Вы можете получить, выбрав интересующий диапазон дат из раскрывающегося списка и нажав кнопку "Ввод!".


*Определитесь, кто Вы:
робот инопланетянин человек

Внимание! Время в таблицах - всемирное. Для получения местного времени необходимо прибавить поправку, которая равна 5 ч.

Смотрите также архив погоды в соседних городах и на ближайших метеорологических станциях:

Погода в Екатеринбурге (Бот.сад) (Свердловская область, Россия) (5 км)
Погода в Верхнем Дуброво (Свердловская область, Россия) (29 км)
Погода в Сысерти (Свердловская область, Россия) (38 км)
Погода в Ревде (Свердловская область, Россия) (40 км)
Погода в Мариинске (Свердловская область, Россия) (52 км)
Погода в Невьянске (Свердловская область, Россия) (78 км)
Погода в Верхнем Уфалее (Челябинская область, Россия) (86 км)
Погода в Каменск-Уральском (Свердловская область, Россия) (88 км)
Погода в Бисерти (Свердловская область, Россия) (95 км)
Погода в Артемовском (Свердловская область, Россия) (98 км)

Пояснения к столбцам:

Ветер - указаны скорость ветра в м/с - средняя за 10 мин, порывы в срок и между сроками (в фигурных скобках) и направление, откуда дует ветер: С - северный, СВ - северо-восточный, В - восточный, ЮВ - юго-восточный, Ю - южный, ЮЗ - юго-западный, З - западный, СЗ - северо-западный.
Видимость - горизонтальная дальность видимости в метрах или километрах. При видимости от 1 до 10 км при отсутствии осадков обычно наблюдается дымка, при ухудшении видимости до 1 км и менее - туман. В сухую погоду видимость может ухудшаться дымом, пылью или мглою.
Явления - указаны атмосферные явления, наблюдавшиеся в срок или в последний час перед сроком; фигурными скобками обозначены явления, наблюдавшиеся между сроками (за 1-3 часа до срока); квадратными скобками обозначены град или гололедные отложения с указанием их диаметра в мм.
Облачность - указаны через наклонную черту общая и нижняя облачность в баллах и высота нижней границы облаков в метрах; квадратными скобками обозначены формы облаков: Ci - перистые, Cs - перисто-слоистые, Cc - перисто-кучевые, Ac - высококучевые, As - высокослоистые, Sc - слоисто-кучевые, Ns - слоисто-дождевые, Cu - кучевые, Cb - кучево-дождевые. Подробнее классификацию облаков см. в Атласе облаков (PDF).
T - Температура воздуха - температура, измеренная на высоте 2 м над землей.
Td - Температура точки росы - температура, при понижении до которой содержащийся в воздухе водяной пар достигнет насыщения.
f - Относительная влажность воздуха - влажноcть воздуха, измеренная на высоте 2 м над землей.
Te - Эффективная температура - температура, которую ощущает одетый по сезону человек в тени. Характеристика душности погоды. При расчете учитывается влияние влажности воздуха и скорости ветра на теплоощущения человека.
Tes - Эффективная температура на солнце - температура, которую ощущает человек, с поправкой на солнечный нагрев. Характеристика знойности погоды. Зависит от высоты солнца над горизонтом, облачности и скорости ветра. Ночью, в пасмурную погоду, а также при ветре 12 м/с и более поправка равна нулю.
P - Атмосферное давление - приведенное к уровню моря атмосферное давление.
Po - Атмосферное давление - измеренное на уровне метеостанции атмосферное давление.
Tmin - Минимальная температура - минимум температуры воздуха на высоте 2 м над землей.
Tmax - Максимальная температура - максимум температуры воздуха на высоте 2 м над землей.
R - Количество осадков - Количество выпавших осадков за период времени, мм. При наведении курсора мыши на число - период времени, за который выпало указанное количество осадков.
R24 - Количество осадков - Количество выпавших осадков за 24 часа, мм.
S - Снежный покров - Высота снежного покрова, см. При наведении курсора мыши на число - состояние снежного покрова и степень покрытия местности в баллах.